Haines, AK

6:18 AM AKST on February 24, 2017 (GMT -0900)
Haines

Weather History for PAHN - October, 2011

Change the Weather History Date:

Wednesday, October 5, 2011

  Actual Average Record
Temperature  
Mean Temperature 46 °F -  
Max Temperature 50 °F 48 °F 59 °F (1977)
Min Temperature 41 °F 39 °F 28 °F (1990)
Degree Days  
Heating Degree Days 20    
Moisture  
Dew Point 41 °F    
Average Humidity 84    
Maximum Humidity 93    
Minimum Humidity 68    
Precipitation  
Precipitation 0.00 in - - ()
Sea Level Pressure  
Sea Level Pressure 29.70 in    
Wind  
Wind Speed 8 mph (North)    
Max Wind Speed 13 mph    
Max Gust Speed -    
Visibility 10 miles    
Events      
Averages and records for this station are not official NWS values.
T = Trace of Precipitation, MM = Missing Value Source: NWS Daily Summary

Daily Weather History Graph

Daily Weather History Graph

Search for Another Location

Airport or City:

Trip Planner

Search our weather history database for the weather conditions in past years. The results will help you decide how hot, cold, wet, or windy it might be!

Date:

Astronomy

Oct. 05, 2011 Rise Set
Actual Time 7:16 AM AKDT 6:23 PM AKDT
Civil Twilight 6:35 AM AKDT 7:04 PM AKDT
Nautical Twilight 5:48 AM AKDT 7:51 PM AKDT
Astronomical Twilight 4:59 AM AKDT 8:40 PM AKDT
Moon 4:21 PM AKDT (10/5) No Moon Set
Length of Visible Light 12h 28m
Length of Day
11h 07m
Waxing Gibbous, 67% of the Moon is Illuminated
Oct 5
Waxing Gibbous
Oct 11
Full
Oct 19
Last Quarter
Oct 26
New
Nov 2
First Quarter

Hourly Weather History & Observations

Time (AKDT) Temp. Windchill Dew Point Humidity Pressure Visibility Wind Dir Wind Speed Gust Speed Precip Events Conditions
12:54 AM 43.0 °F 38.2 °F 39.9 °F 89% 29.63 in 10.0 mi WNW 8.1 mph - N/A   Overcast
1:54 AM 42.1 °F 36.6 °F 39.0 °F 89% 29.64 in 10.0 mi WNW 9.2 mph - N/A   Scattered Clouds
2:54 AM 43.0 °F 37.7 °F 39.0 °F 86% 29.65 in 10.0 mi WNW 9.2 mph - N/A   Overcast
3:54 AM 42.1 °F 39.2 °F 39.0 °F 89% 29.65 in 10.0 mi WNW 4.6 mph - N/A   Overcast
4:54 AM 41.0 °F 33.9 °F 39.0 °F 93% 29.65 in 10.0 mi WNW 12.7 mph - N/A   Clear
5:54 AM 42.1 °F 36.6 °F 39.0 °F 89% 29.66 in 10.0 mi WNW 9.2 mph - N/A   Scattered Clouds
6:54 AM 41.0 °F 34.7 °F 37.9 °F 89% 29.67 in 10.0 mi WNW 10.4 mph - N/A   Clear
7:54 AM 41.0 °F 35.2 °F 37.9 °F 89% 29.68 in 10.0 mi WNW 9.2 mph - N/A   Clear
8:54 AM 42.1 °F 37.1 °F 39.0 °F 89% 29.69 in 10.0 mi WNW 8.1 mph - N/A   Mostly Cloudy
9:54 AM 43.0 °F 38.2 °F 39.0 °F 86% 29.70 in 10.0 mi WNW 8.1 mph - N/A   Clear
10:54 AM 46.9 °F - 39.9 °F 77% 29.70 in 10.0 mi WNW 8.1 mph - N/A   Clear
11:54 AM 46.9 °F - 39.9 °F 77% 29.71 in 10.0 mi West 8.1 mph - N/A   Clear
12:54 PM 50.0 °F - 39.9 °F 68% 29.72 in 10.0 mi Calm Calm - N/A   Scattered Clouds
1:54 PM 48.9 °F - 42.1 °F 77% 29.71 in 10.0 mi SE 6.9 mph - N/A   Clear
2:54 PM 48.9 °F - 42.1 °F 77% 29.72 in 10.0 mi SE 8.1 mph - N/A   Clear
3:54 PM 46.9 °F - 42.1 °F 83% 29.73 in 10.0 mi East 5.8 mph - N/A   Partly Cloudy
4:54 PM 46.9 °F - 42.1 °F 83% 29.73 in 10.0 mi East 5.8 mph - N/A   Overcast
5:54 PM 46.9 °F - 43.0 °F 86% 29.74 in 10.0 mi East 4.6 mph - N/A   Overcast
6:54 PM 46.0 °F - 43.0 °F 89% 29.73 in 10.0 mi Calm Calm - N/A   Overcast
7:54 PM 46.0 °F 43.9 °F 43.0 °F 89% 29.73 in 10.0 mi East 4.6 mph - N/A   Overcast
8:54 PM 46.9 °F - 43.0 °F 86% 29.74 in 10.0 mi ESE 6.9 mph - N/A   Overcast
9:54 PM 48.9 °F - 41.0 °F 74% 29.74 in 10.0 mi East 9.2 mph - N/A   Overcast
10:01 PM 48.2 °F - 42.8 °F 82% 29.73 in 10.0 mi East 6.9 mph - N/A   Overcast
10:54 PM 48.0 °F - 42.1 °F 80% 29.73 in 10.0 mi East 6.9 mph - N/A   Overcast
11:30 PM 48.2 °F - 42.8 °F 82% 29.72 in 10.0 mi East 6.9 mph - N/A   Overcast
11:54 PM 48.0 °F - 43.0 °F 83% 29.73 in 10.0 mi SE 6.9 mph - N/A   Overcast